Location: ???????
(56.2167°N, 38.0500°E)
Time: 04:06:31
(UTC+00:00)

Cosmos 2084 Rocket - Pass Details

Date: 19 May 2025
Orbit: 542 x 579 km, 62.8° (Epoch: 19 June)

Event Time Altitude Azimuth Distance (km) Brightness Sun altitude
Rises 20:20:07 0° 234° (SW) 2,782 6.7 -12.6°
Reaches altitude 10° 20:22:21 10° 235° (SW) 1,882 5.8 -12.7°
Maximum altitude 20:26:36 86° 322° (NW) 579 3.4 -12.9°
Drops below altitude 10° 20:30:50 10° 54° (NE) 1,870 6.3 -13.0°
Sets 20:33:03 0° 55° (NE) 2,763 7.2 -13.1°
